Voltar ao catálogo

SL-12 R/B

AUX MOTOR

AtivoUNKNOWN
NORAD 4789·ROCKET BODY·🇷🇺 Russia

Lançado Dec 2, 1970 de Baikonur Cosmodrome

Loading…

Próximas Passagens (próximas 24 horas)

TLE

AtualizadoSource: Space-Track

Época: Sep 14, 2026, 09:26 UTC

1 04789U 70103B   26257.39338477 -.00000064  00000-0 -16394-2 0  9992
2 04789  51.5999  26.5572 1802474 321.2078  51.5014  9.06813898847786

Acompanhe SL-12 R/B em tempo real com AllMySat

Download on the App Store